GW1572 Weather Reports


time (UTC)temp
F
wind
direction
speed
knots
gust
knots
rain 1hr
in
rain 24hr
in
rain mn
in
humidity
%
barometer
mb
20260505030344 62 240 0.0 0.0 0.00 0.00 0.00 78 1000.6
20260505025743 62 231 0.0 0.0 0.00 0.00 0.00 78 1000.6
20260505025129 62 228 0.0 0.0 0.00 0.00 0.00 78 1000.6
20260505024538 62 231 0.0 0.0 0.00 0.00 0.00 79 1000.6
20260505022123 63 231 0.0 0.0 0.00 0.00 0.00 78 1000.3
20260505021511 63 230 0.0 0.0 0.00 0.00 0.00 77 1000.3
20260505020926 63 240 0.0 0.0 0.00 0.00 0.00 77 1000.3
20260505020317 63 239 0.0 0.0 0.00 0.00 0.00 78 1000.6
20260505015154 64 243 0.0 0.0 0.00 0.00 0.00 78 1000.6
20260505014530 64 274 0.0 0.0 0.00 0.00 0.00 77 1000.3
20260505013918 64 270 0.0 0.0 0.00 0.00 0.00 77 1000.3
20260505013318 64 243 0.0 0.0 0.00 0.00 0.00 76 1000.3
20260505012711 65 323 0.0 0.0 0.00 0.00 0.00 75 1000.3
20260505012147 65 237 0.0 0.0 0.00 0.00 0.00 75 1000.3
20260505011536 65 282 0.0 0.0 0.00 0.00 0.00 76 1000.0
20260505010914 65 295 0.0 0.0 0.00 0.00 0.00 75 1000.6
20260505010331 65 254 0.0 0.0 0.00 0.00 0.00 75 1000.3
20260505005751 65 275 0.0 0.0 0.00 0.00 0.00 75 1000.3
20260505005121 65 259 0.0 0.0 0.00 0.00 0.00 74 1000.3
20260505004534 66 242 0.0 0.0 0.00 0.00 0.00 74 1000.3
20260505003929 66 261 0.0 0.0 0.00 0.00 0.00 74 1000.3
20260505003354 67 237 0.0 0.0 0.00 0.00 0.00 72 1000.3
20260505002111 68 263 0.0 0.0 0.00 0.00 0.00 72 1000.3
20260505001513 68 272 0.0 0.0 0.00 0.00 0.00 70 1000.3
20260505000916 69 252 0.0 0.0 0.00 0.00 0.00 69 1000.3
20260505000318 70 262 0.0 0.0 0.00 0.00 0.00 69 1000.6
20260504235715 70 266 0.0 0.0 0.00 0.00 0.00 68 1000.6
20260504234528 72 274 0.0 0.0 0.00 0.00 0.00 65 1000.6
20260504233933 73 282 0.0 0.0 0.00 0.00 0.00 63 1000.6
20260504233341 74 185 0.0 0.0 0.00 0.00 0.00 63 1000.3
20260504232715 75 273 0.0 0.9 0.00 0.00 0.00 56 1000.3
20260504232153 78 257 0.9 0.9 0.00 0.00 0.00 53 1000.3
20260504231519 79 349 1.7 2.6 0.00 0.00 0.00 51 1000.3
20260504230952 81 215 0.0 0.9 0.00 0.00 0.00 51 1000.6
20260504225715 79 325 0.9 1.7 0.00 0.00 0.00 50 1000.6
20260504225147 79 307 0.9 0.9 0.00 0.00 0.00 51 1000.6
20260504224511 77 297 0.9 1.7 0.00 0.00 0.00 52 1000.6
20260504223935 77 23 0.9 1.7 0.00 0.00 0.00 53 1000.6
20260504223316 78 290 1.7 1.7 0.00 0.00 0.00 51 1000.6
20260504222753 77 336 0.9 0.9 0.00 0.00 0.00 55 1000.6
20260504222112 77 321 0.0 0.9 0.00 0.00 0.00 56 1000.6
20260504221522 77 5 0.9 0.9 0.00 0.00 0.00 52 1001.0
20260504220927 78 25 1.7 2.6 0.00 0.00 0.00 52 1001.0
20260504220316 77 330 5.2 7.0 0.00 0.00 0.00 52 1001.0
20260504215123 76 341 3.5 3.5 0.00 0.00 0.00 55 1001.3
20260504214552 76 16 3.5 3.5 0.00 0.00 0.00 53 1001.3
20260504213951 77 334 2.6 3.5 0.00 0.00 0.00 52 1001.0
20260504211528 77 28 2.6 3.5 0.00 0.00 0.00 51 1001.3
20260504210950 77 318 4.3 6.1 0.00 0.00 0.00 50 1001.3
20260504210330 77 345 1.7 2.6 0.00 0.00 0.00 51 1001.3
20260504205734 76 293 3.5 3.5 0.00 0.00 0.00 51 1001.3
20260504205140 76 42 2.6 3.5 0.00 0.00 0.00 52 1001.3
20260504204542 76 342 2.6 2.6 0.00 0.00 0.00 54 1001.6
20260504203932 74 306 4.3 5.2 0.00 0.00 0.00 55 1001.3
20260504202734 72 2 2.6 2.6 0.00 0.00 0.00 60 1001.6
20260504202114 71 306 2.6 2.6 0.00 0.00 0.00 60 1001.3
20260504201541 71 291 0.9 0.9 0.00 0.00 0.00 63 1001.3
20260504200320 69 257 0.9 0.9 0.00 0.00 0.00 68 1001.6
20260504195752 68 319 0.9 1.7 0.00 0.00 0.00 63 1001.6
20260504195125 68 20 0.9 0.9 0.00 0.00 0.00 64 1002.0
20260504194552 68 9 1.7 1.7 0.00 0.00 0.00 64 1001.6
20260504193936 70 355 1.7 1.7 0.00 0.00 0.00 60 1001.6
20260504193338 70 340 2.6 2.6 0.00 0.00 0.00 59 1002.3
20260504192722 72 344 1.7 2.6 0.00 0.00 0.00 58 1002.3
20260504192139 72 311 3.5 6.1 0.00 0.00 0.00 56 1002.3
20260504191533 72 335 1.7 1.7 0.00 0.00 0.00 56 1002.0
20260504190949 72 260 3.5 5.2 0.00 0.00 0.00 57 1002.0
20260504185733 72 17 2.6 5.2 0.00 0.00 0.00 55 1002.0
20260504184535 74 264 4.3 5.2 0.00 0.00 0.00 52 1002.7
20260504183943 73 298 5.2 6.1 0.00 0.00 0.00 53 1002.7
20260504183329 72 333 2.6 6.1 0.00 0.00 0.00 56 1002.7
20260504182741 73 24 2.6 5.2 0.00 0.00 0.00 53 1002.7
20260504182142 73 270 1.7 1.7 0.00 0.00 0.00 54 1002.7
20260504181512 73 10 1.7 2.6 0.00 0.00 0.00 53 1002.7
20260504180923 73 286 4.3 7.0 0.00 0.00 0.00 55 1002.7
20260504180320 72 1 5.2 6.1 0.00 0.00 0.00 58 1002.7
20260504175748 73 342 1.7 2.6 0.00 0.00 0.00 55 1002.7
20260504174534 72 315 5.2 7.0 0.00 0.00 0.00 55 1002.3
20260504173931 70 5 4.3 5.2 0.00 0.00 0.00 60 1002.7
20260504172713 73 245 2.6 2.6 0.00 0.00 0.00 58 1002.3
20260504172134 73 356 3.5 3.5 0.00 0.00 0.00 55 1002.7
20260504171554 71 338 1.7 1.7 0.00 0.00 0.00 60 1002.7
20260504170919 70 23 5.2 7.8 0.00 0.00 0.00 55 1003.0
20260504170335 70 321 3.5 3.5 0.00 0.00 0.00 58 1003.0
20260504160347 66 349 3.5 5.2 0.00 0.00 0.00 67 1004.0
20260504141236 59 6 1.7 1.7 0.00 0.00 0.00 72 1005.0
20260504140653 58 343 3.5 5.2 0.00 0.00 0.00 72 1005.0
20260504130633 56 353 1.7 2.6 0.00 0.00 0.00 71 1004.7
20260504110627 45 239 0.0 0.0 0.00 0.00 0.00 92 1004.7
20260504081815 46 250 0.0 0.0 0.00 0.00 0.00 97 1005.4
20260504081216 46 266 0.0 0.0 0.00 0.00 0.00 96 1005.7
20260504080626 46 288 0.0 0.0 0.00 0.00 0.00 96 1005.4
20260504045417 50 265 0.0 0.0 0.00 0.00 0.00 91 1007.1
20260504044831 51 259 0.0 0.0 0.00 0.00 0.00 91 1007.1
20260504044221 51 263 0.0 0.0 0.00 0.00 0.00 89 1007.1
20260504043642 52 268 0.0 0.0 0.00 0.00 0.00 86 1007.1
20260504043048 52 272 0.0 0.0 0.00 0.00 0.00 81 1007.4
20260504042431 52 313 0.9 0.9 0.00 0.00 0.00 76 1007.4
20260504041228 53 8 1.7 1.7 0.00 0.00 0.00 72 1007.4
20260504040644 54 359 2.6 2.6 0.00 0.00 0.00 68 1007.4
20260504040030 55 353 0.9 0.9 0.00 0.00 0.00 62 1007.1
20260504035428 53 18 2.6 3.5 0.00 0.00 0.00 62 1007.1
20260504034215 53 275 0.0 0.0 0.00 0.00 0.00 72 1007.4
20260504033612 53 271 0.0 0.0 0.00 0.00 0.00 72 1007.1
20260504033036 53 279 0.0 0.0 0.00 0.00 0.00 71 1007.1
20260504031244 53 268 0.0 0.0 0.00 0.00 0.00 72 1007.1